Waarnemingen

Advertentie
Mijn weer
Barcelona/Aeropuerto, Spanje (8181): temperatuur & dauwpunt: 11.02.2018 20:00:00 - 17.02.2018 20:00:00 (CET)Barcelona/Aeropuerto, Spanje (8181): windsnelheid: 11.02.2018 20:00:00 - 17.02.2018 20:00:00 (CET)Barcelona/Aeropuerto, Spanje (8181): windrichting: 11.02.2018 20:00:00 - 17.02.2018 20:00:00 (CET)Barcelona/Aeropuerto, Spanje (8181): luchtdruk: 11.02.2018 20:00:00 - 17.02.2018 20:00:00 (CET)Barcelona/Aeropuerto, Spanje (8181): zicht: 11.02.2018 20:00:00 - 17.02.2018 20:00:00 (CET)
Datum & Tijd tt [°C] td [°C] ff [km/u] ff [kn] dd ppp [hPa] vv [km]
17.02.2018 20:00:00 13,3 9,2 8 4 Z 1022,1 26
17.02.2018 19:00:00 13,6 10,2 8 4 ZO 1022,0 15
17.02.2018 18:00:00 13,8 10,8 13 7 OZO 1021,3 30
17.02.2018 17:00:00 13,8 11,7 9 5 OZO 1021,0 12
17.02.2018 16:00:00 13,9 11,1 13 7 O 1020,8 4,5
17.02.2018 15:00:00 13,8 11,1 22 12 O 1020,5 8
17.02.2018 14:00:00 13,9 11,1 26 14 O 1020,5 10
17.02.2018 13:00:00 14,6 10,6 22 12 O 1020,7 6
17.02.2018 12:00:00 14,6 10,4 11 6 ONO 1020,9 11
17.02.2018 11:00:00 13,2 11,1 8 4 WNW 1020,6 8
17.02.2018 10:00:00 11,4 10,5 5 3 N 1020,2 4,5
17.02.2018 09:00:00 9,5 8,7 8 4 N 1020,0 3,5
17.02.2018 08:00:00 8,8 8,0 4 2 N 1019,7 3,8
17.02.2018 07:00:00 8,7 7,9 4 2 N 1019,5 2,4
17.02.2018 06:00:00 9,7 8,9 8 4 W 1019,4 4,1
17.02.2018 05:00:00 10,7 9,9 13 7 W 1019,7 3,1
17.02.2018 04:00:00 10,9 10,1 13 7 W 1020,0 3,6
17.02.2018 03:00:00 11,3 10,5 16 9 WZW 1020,6 4,0
17.02.2018 02:00:00 11,0 10,2 11 6 W 1021,0 2,2
17.02.2018 01:00:00 11,4 10,6 15 8 WZW 1021,6 2,7
17.02.2018 00:00:00 11,6 10,8 15 8 WZW 1021,7 4,6
16.02.2018 23:00:00 11,9 11,1 15 8 WZW 1021,6 4,0
16.02.2018 22:00:00 12,0 11,2 16 9 WZW 1021,6 5
16.02.2018 21:00:00 12,4 11,5 15 8 WZW 1021,5 6
16.02.2018 20:00:00 12,8 11,5 15 8 WZW 1021,5 7
16.02.2018 19:00:00 13,3 11,7 15 8 WZW 1021,6 8
16.02.2018 18:00:00 13,9 12,1 24 13 ZW 1021,5 15
16.02.2018 17:00:00 14,8 12,5 21 11 ZW 1021,7 18
16.02.2018 16:00:00 15,1 12,7 22 12 ZW 1021,9 20
16.02.2018 15:00:00 15,0 12,5 21 11 ZW 1022,2 17
16.02.2018 14:00:00 15,9 12,3 18 10 ZW 1022,8 25
16.02.2018 13:00:00 15,9 11,3 11 6 ZW 1023,6 12
16.02.2018 12:00:00 15,0 11,6 11 6 WZW 1024,4 24
16.02.2018 11:00:00 14,1 10,3 0 0 N 1024,5 15
16.02.2018 10:00:00 12,7 8,8 8 4 N 1024,3 15
16.02.2018 09:00:00 11,6 8,3 11 6 N 1024,1 16
16.02.2018 08:00:00 10,8 8,0 11 6 N 1023,6 15
16.02.2018 07:00:00 10,8 8,0 13 7 N 1023,1 16
16.02.2018 06:00:00 10,9 8,1 13 7 N 1023,4 16
16.02.2018 05:00:00 10,6 8,2 9 5 N 1023,4 14
16.02.2018 04:00:00 10,7 8,3 4 2 NNW 1023,7 15
16.02.2018 03:00:00 10,7 8,3 8 4 NNW 1024,1 16
16.02.2018 02:00:00 11,0 8,4 4 2 N 1024,3 17
16.02.2018 01:00:00 10,7 8,8 2 1 ONO 1024,5 12
16.02.2018 00:00:00 10,1 8,7 4 2 N 1024,8 11
15.02.2018 23:00:00 10,8 9,2 0 0 N 1024,7 6
15.02.2018 22:00:00 11,8 10,0 8 4 N 1024,6 11
15.02.2018 21:00:00 12,2 10,7 2 1 ONO 1024,7 7
15.02.2018 20:00:00 12,9 11,3 0 0 N 1024,3 6
15.02.2018 19:00:00 13,4 11,1 8 4 ZW 1024,0 9
15.02.2018 18:00:00 14,5 10,9 13 7 ZZW 1023,5 13
15.02.2018 17:00:00 15,4 10,8 13 7 ZZW 1022,9 15
15.02.2018 16:00:00 15,4 10,6 13 7 ZZW 1022,8 19
15.02.2018 15:00:00 15,5 10,5 15 8 ZZW 1022,7 16
15.02.2018 14:00:00 15,1 10,3 21 11 ZW 1023,0 16
15.02.2018 13:00:00 15,3 8,3 16 9 ZW 1023,0 17
15.02.2018 12:00:00 15,7 8,1 9 5 NNO 1023,3 30
15.02.2018 11:00:00 13,5 7,2 16 9 N 1022,9 19
15.02.2018 10:00:00 11,8 6,5 13 7 N 1022,6 26
15.02.2018 09:00:00 8,4 4,6 13 7 N 1022,1 17
15.02.2018 08:00:00 6,8 3,6 16 9 NNO 1021,2 16
15.02.2018 07:00:00 7,2 3,8 16 9 N 1020,3 20
15.02.2018 06:00:00 7,0 4,0 18 10 N 1019,9 18
15.02.2018 05:00:00 6,9 4,5 18 10 N 1019,4 15
15.02.2018 04:00:00 7,7 5,2 15 8 N 1019,4 15
15.02.2018 03:00:00 7,4 5,5 16 9 N 1019,3 11
15.02.2018 02:00:00 7,2 5,3 11 6 N 1019,0 9
15.02.2018 01:00:00 7,3 5,4 11 6 N 1018,8 10
15.02.2018 00:00:00 7,1 5,1 4 2 N 1018,4 12
14.02.2018 23:00:00 7,9 5,5 11 6 N 1018,1 15
14.02.2018 22:00:00 9,1 6,2 4 2 NNO 1018,3 20
14.02.2018 21:00:00 9,1 6,2 8 4 W 1018,1 19
14.02.2018 20:00:00 10,0 6,5 5 3 W 1018,1 22
14.02.2018 19:00:00 10,6 6,6 11 6 WZW 1017,7 22
14.02.2018 18:00:00 11,0 5,9 13 7 W 1017,6 29
14.02.2018 17:00:00 11,3 4,6 13 7 ZW 1017,5 22
14.02.2018 16:00:00 11,6 4,2 4 2 W 1017,4 25
14.02.2018 15:00:00 10,5 3,5 8 4 N 1017,5 22
14.02.2018 14:00:00 9,7 2,5 13 7 N 1017,8 26
14.02.2018 13:00:00 9,3 2,4 15 8 N 1018,0 25
14.02.2018 12:00:00 8,2 1,6 15 8 N 1018,9 24
14.02.2018 11:00:00 6,4 0,8 18 10 N 1018,7 25
14.02.2018 10:00:00 5,0 0,7 18 10 N 1018,1 25
14.02.2018 09:00:00 4,5 0,4 16 9 N 1017,5 21
14.02.2018 08:00:00 4,2 0,3 16 9 N 1016,8 24
14.02.2018 07:00:00 5,0 0,6 15 8 N 1016,3 30
14.02.2018 06:00:00 4,3 0,4 16 9 N 1016,0 28
14.02.2018 05:00:00 4,1 0,4 4 2 N 1015,6 28
14.02.2018 04:00:00 5,4 0,6 8 4 NNO 1015,2 30
14.02.2018 03:00:00 6,7 0,9 9 5 W 1015,1 30
14.02.2018 02:00:00 6,6 1,1 13 7 W 1014,9 30
14.02.2018 01:00:00 7,4 0,9 9 5 W 1015,0 40
14.02.2018 00:00:00 7,5 0,5 5 3 WZW 1015,1 30
13.02.2018 23:00:00 7,3 0,9 16 9 W 1014,9 30
13.02.2018 22:00:00 6,8 1,1 16 9 W 1014,9 40
13.02.2018 21:00:00 7,5 0,7 11 6 WZW 1014,8 30
13.02.2018 20:00:00 7,6 0,8 13 7 W 1014,5 30
13.02.2018 19:00:00 8,4 0,6 11 6 WZW 1014,4 30
13.02.2018 18:00:00 8,8 0,7 18 10 WZW 1013,8 30
13.02.2018 17:00:00 9,6 0,3 31 17 W 1013,7 30
13.02.2018 16:00:00 10,9 -0,7 37 20 W 1013,9 30
13.02.2018 15:00:00 11,1 1,8 29 16 W 1014,3 30
13.02.2018 14:00:00 10,0 1,6 31 17 W 1015,5 30
13.02.2018 13:00:00 9,1 0,3 31 17 W 1016,5 30
13.02.2018 12:00:00 8,2 0,5 8 4 W 1018,2 30
13.02.2018 11:00:00 5,6 0,1 16 9 N 1018,8 26
13.02.2018 10:00:00 3,9 -0,8 22 12 N 1019,4 30
13.02.2018 09:00:00 2,4 -1,1 22 12 N 1019,4 30
13.02.2018 08:00:00 1,6 -1,0 22 12 N 1019,6 29
13.02.2018 07:00:00 1,7 -0,6 24 13 N 1019,5 25
13.02.2018 06:00:00 2,1 -0,2 16 9 N 1019,8 20
13.02.2018 05:00:00 2,2 0,6 11 6 NNW 1019,8 11
13.02.2018 04:00:00 2,5 1,2 11 6 N 1020,1 15
13.02.2018 03:00:00 2,7 1,5 16 9 N 1020,5 10
13.02.2018 02:00:00 3,0 1,8 15 8 N 1020,4 9
13.02.2018 01:00:00 3,7 2,4 11 6 N 1020,1 15
13.02.2018 00:00:00 4,2 2,5 11 6 N 1020,1 15
12.02.2018 23:00:00 4,5 2,8 16 9 O 1020,1 30
12.02.2018 22:00:00 3,7 2,8 21 11 ZO 1018,8 18
12.02.2018 21:00:00 3,3 2,3 18 10 N 1019,8 6
12.02.2018 20:00:00 7,4 4,0 9 5 OZO 1018,4 30
12.02.2018 19:00:00 7,6 4,9 11 6 OZO 1017,8 9
12.02.2018 18:00:00 7,2 5,0 11 6 O 1017,1 15
12.02.2018 17:00:00 7,3 5,3 15 8 O 1016,8 12
12.02.2018 16:00:00 7,5 5,6 13 7 O 1016,9 15
12.02.2018 15:00:00 7,6 5,6 16 9 O 1017,2 8
12.02.2018 14:00:00 8,3 6,4 18 10 O 1017,3 8
12.02.2018 13:00:00 8,0 6,3 22 12 OZO 1017,5 6
12.02.2018 12:00:00 9,6 7,5 21 11 ZO 1017,5 15
12.02.2018 11:00:00 10,0 7,8 16 9 ZO 1017,2 21
12.02.2018 10:00:00 11,4 9,0 8 4 Z 1016,2 40
12.02.2018 09:00:00 10,7 8,6 18 10 OZO 1016,0 18
12.02.2018 08:00:00 11,1 8,8 9 5 ZO 1015,6 4,3
12.02.2018 07:00:00 11,2 7,9 9 5 ONO 1014,9 30
12.02.2018 06:00:00 11,9 7,6 9 5 ZO 1015,0 30
12.02.2018 05:00:00 12,2 8,5 8 4 ZO 1014,7 14
12.02.2018 04:00:00 11,3 8,0 8 4 O 1014,9 18
12.02.2018 03:00:00 11,6 5,7 11 6 NO 1015,1 30
12.02.2018 02:00:00 11,6 6,0 9 5 N 1014,6 30
12.02.2018 01:00:00 11,7 7,5 8 4 NNO 1014,8 30
12.02.2018 00:00:00 12,2 8,3 5 3 NNO 1014,2 30
11.02.2018 23:00:00 12,3 9,1 4 2 N 1013,6 18
11.02.2018 22:00:00 13,3 10,0 15 8 WZW 1013,7 21
11.02.2018 21:00:00 13,6 8,8 18 10 ZW 1013,8 25
11.02.2018 20:00:00 13,2 8,7 22 12 WZW 1014,2 30

tt = temperatuur
td = dauwpunt
ff = windsnelheid
dd = windrichting
ppp = luchtdruk
vv = zicht

Weerstations in de omgeving